Change the Weather History Date:

Friday, October 25, 2013

  Actual Average Record
Temperature  
Mean Temperature 64 °F -  
Max Temperature 73 °F 76 °F 93 °F (1959)
Min Temperature 55 °F 45 °F 28 °F (1980)
Degree Days  
Heating Degree Days 1    
Growing Degree Days 14 (Base 50)    
Moisture  
Dew Point 47 °F    
Average Humidity 58    
Maximum Humidity 72    
Minimum Humidity 40    
Precipitation  
Precipitation 0.00 in - - ()
Sea Level Pressure  
Sea Level Pressure 30.11 in    
Wind  
Wind Speed 11 mph (ESE)    
Max Wind Speed 22 mph    
Max Gust Speed 26 mph    
Visibility 10 miles    
Events      
Averages and records for this station are not official NWS values.
T = Trace of Precipitation, MM = Missing Value Source: NWS Daily Summary

Daily Weather History Graph

Daily Weather History Graph

Search for Another Location

Airport or City:

Trip Planner

Search our weather history database for the weather conditions in past years. The results will help you decide how hot, cold, wet, or windy it might be!

Date:

Astronomy

Oct. 25, 2013 Rise Set
Actual Time 8:03 AM CDT 7:09 PM CDT
Civil Twilight 7:38 AM CDT 7:34 PM CDT
Nautical Twilight 7:10 AM CDT 8:02 PM CDT
Astronomical Twilight 6:41 AM CDT 8:31 PM CDT
Moon No Moon Rise 1:39 PM CDT (10/25)
Length of Visible Light 11h 55m
Length of Day
11h 05m
Waning Gibbous, 62% of the Moon is Illuminated
Oct 25
Waning Gibbous
Oct 26
Last Quarter
Nov 3
New
Nov 9
First Quarter
Nov 17
Full

Hourly Weather History & Observations

Time (CDT) Temp. Dew Point Humidity Pressure Visibility Wind Dir Wind Speed Gust Speed Precip Events Conditions
12:53 AM 59.0 °F 42.1 °F 53% 30.09 in 10.0 mi East 8.1 mph - N/A   Clear
1:53 AM 59.0 °F 43.0 °F 55% 30.09 in 10.0 mi East 8.1 mph - N/A   Clear
2:53 AM 57.9 °F 43.0 °F 58% 30.09 in 10.0 mi East 8.1 mph - N/A   Clear
3:53 AM 57.9 °F 43.0 °F 58% 30.09 in 10.0 mi East 8.1 mph - N/A   Clear
4:53 AM 57.0 °F 43.0 °F 59% 30.09 in 10.0 mi East 11.5 mph - N/A   Clear
5:53 AM 55.9 °F 43.0 °F 62% 30.12 in 10.0 mi East 8.1 mph - N/A   Clear
6:53 AM 57.0 °F 43.0 °F 59% 30.14 in 10.0 mi East 9.2 mph - N/A   Clear
7:53 AM 55.9 °F 44.1 °F 64% 30.17 in 10.0 mi ENE 5.8 mph - N/A   Clear
8:53 AM 57.9 °F 46.0 °F 65% 30.16 in 10.0 mi ESE 12.7 mph - N/A   Clear
9:53 AM 60.1 °F 48.0 °F 64% 30.13 in 10.0 mi ESE 19.6 mph 26.5 mph N/A   Clear
10:53 AM 63.0 °F 48.9 °F 60% 30.22 in 10.0 mi East 4.6 mph - N/A   Partly Cloudy
11:53 AM 61.0 °F 48.0 °F 62% 30.25 in 10.0 mi North 16.1 mph 20.7 mph N/A   Overcast
12:53 PM 61.0 °F 48.9 °F 64% 30.19 in 10.0 mi ENE 13.8 mph - 0.00 in   Partly Cloudy
1:53 PM 66.0 °F 51.1 °F 59% 30.14 in 10.0 mi SE 16.1 mph - 0.00 in   Mostly Cloudy
2:53 PM 66.9 °F 50.0 °F 54% 30.09 in 10.0 mi SE 21.9 mph 25.3 mph N/A   Mostly Cloudy
3:53 PM 73.0 °F 51.1 °F 46% 30.06 in 10.0 mi ESE 17.3 mph 23.0 mph 0.00 in   Clear
4:53 PM 73.9 °F 48.0 °F 40% 30.05 in 10.0 mi ESE 15.0 mph - N/A   Partly Cloudy
5:53 PM 73.0 °F 48.9 °F 42% 30.05 in 10.0 mi SE 15.0 mph 23.0 mph N/A   Clear
6:53 PM 70.0 °F 48.9 °F 47% 30.05 in 10.0 mi SE 12.7 mph 23.0 mph N/A   Partly Cloudy
7:53 PM 66.9 °F 48.9 °F 52% 30.07 in 10.0 mi SE 10.4 mph - N/A   Clear
8:53 PM 64.9 °F 50.0 °F 58% 30.08 in 10.0 mi ESE 10.4 mph - N/A   Clear
9:53 PM 62.1 °F 50.0 °F 65% 30.09 in 10.0 mi SE 8.1 mph - N/A   Clear
10:53 PM 61.0 °F 50.0 °F 67% 30.09 in 10.0 mi ESE 9.2 mph - N/A   Clear
11:53 PM 59.0 °F 50.0 °F 72% 30.08 in 10.0 mi East 8.1 mph - N/A   Clear